Regional Weather Roundup
Issued by NWS

Home | Current Version | Previous Version | Graphics & Text | Print | Product List | Glossary On
Versions: 1 2 3 4 5 6 7 8 9 10 11 12 13 14 15 16 17 18 19 20 21 22 23 24 25 26 27 28 29 30 31 32 33 34 35 36 37 38 39 40 41 42 43 44 45 46 47 48 49 50
000
ASUS43 KFSD 220910
RWRSD

WEATHER ROUNDUP FOR SOUTH DAKOTA
NATIONAL WEATHER SERVICE SIOUX FALLS SD
300 AM CST THU FEB 22 2018

NOTE: "FAIR" INDICATES FEW OR NO CLOUDS BELOW 12,000 FEET WITH NO
SIGNIFICANT WEATHER AND/OR OBSTRUCTIONS TO VISIBILITY.


SDZ001>005-009-010-012>017-221000-
NORTHWEST AND NORTH CENTRAL SOUTH DAKOTA

CITY           SKY/WX    TMP DP  RH WIND       PRES   REMARKS
BUFFALO          N/A     -4 -11  72 CALM      30.08S
FAITH            N/A     -9 -11  91 CALM      30.21F
MOBRIDGE       FAIR      -4  -7  87 SE3       30.28F
$$

SDZ012>016-024>037-041>051-057-063-072>074-221000-
SOUTHWEST AND SOUTH CENTRAL SOUTH DAKOTA

CITY           SKY/WX    TMP DP  RH WIND       PRES   REMARKS
RAPID CTY ARPT FAIR       4  -3  73 E6        30.14F WCI  -7
PIERRE         FAIR       6   3  87 SE9       30.33S WCI  -8
CUSTER         FAIR       7   2  80 CALM      30.02F
ELLSWORTH AFB  FAIR       4  -2  79 CALM      30.13F
PHILIP         FAIR       2   0  91 CALM      30.26S
PINE RIDGE     FAIR      18   8  65 S15       30.17S WCI   4
SPEARFISH        N/A      5  -2  72 S9        30.09S WCI  -9
WINNER         FAIR      16   8  71 S14       30.33F WCI   2
$$

SDZ004>011-016>023-039-040-221000-
NORTHEAST SOUTH DAKOTA

CITY           SKY/WX    TMP DP  RH WIND       PRES   REMARKS
ABERDEEN       FAIR       9   3  77 S10       30.42F WCI  -5
WATERTOWN      FAIR       6   1  80 SE12      30.43F WCI  -9
BROOKINGS      FAIR       5   1  83 SE8       30.46F WCI  -8
SISSETON         N/A      3  -2  79 S7        30.48F WCI  -9
$$

SDZ017-020-022-023-036>040-048>070-221000-
SOUTHEAST SOUTH DAKOTA

CITY           SKY/WX    TMP DP  RH WIND       PRES   REMARKS
SIOUX FALLS    CLOUDY    12   7  80 E6        30.48F WCI   3
HURON          FAIR       6   2  83 SE7       30.44F WCI  -6
CHAMBERLAIN    FAIR      10   6  82 E7        30.37F WCI  -1
MITCHELL       FAIR       8   3  80 SE9       30.46F WCI  -5
YANKTON        FAIR      16  11  80 E7        30.47F WCI   6
$$

ABBREVIATIONS USED IN REMARKS
   TC - TEMPERATURE IN CELSIUS
  WCI - WIND CHILL INDEX
   HX - HEAT INDEX
  VSB - VISIBILITY





USA.gov is the U.S. government's official web portal to all federal, state and local government web resources and services.